{"data":{"norad_id":63275,"intl_designator":"2025-053L","name":"STARLINK-11608 [DTC]","alt_names":[],"object_type":"PAYLOAD","status":"ACTIVE","operator":null,"country":"US","launch_date":"2025-03-15","launch_site_code":"AFETR","launch_vehicle":null,"mission":null,"orbit_class":"UNKNOWN","rcs_meters":null,"size_class":null,"mass_kg":null,"dimensions":null,"purposes":["comms"],"wikipedia_slug":null,"has_3d_model":false,"image_url":null,"decayed_at":null,"tle_current":{"epoch":"2026-09-20T09:28:13.243872Z","epoch_age_seconds":167989,"freshness":"FRESH","line1":"1 63275U 25053L   26263.39459773  .00149563  00000+0  11482-2 0  9999","line2":"2 63275  43.0006  18.4228 0002826 289.2925  70.7637 15.70838844 88282","mean_motion":15.70838844,"eccentricity":0.0002826,"inclination_deg":43.0006,"raan_deg":18.4228,"arg_perigee_deg":289.2925,"mean_anomaly_deg":70.7637,"bstar":0.0011482,"rev_number":8828,"period_min":91.670765941411,"perigee_km":354.59515768061,"apogee_km":358.40157358927,"semimajor_km":6734.6353656349,"source":"CELESTRAK","updated_at":"2026-09-21T09:00:34.964269Z"}}}